Home > Weather > Osterode am Harz > Past weeks

Flag for Germany Weather for the Past 2 Weeks in Osterode am Harz, Lower Saxony, Germany

Now
59 °F

Passing clouds.


Feels Like: 58 °F
Forecast: 33 / 62 °F
Wind: 7 mph from North

Location: Braunschweig Wolfsburg

Current Time: May 4, 2016 at 5:57:50 PM

Latest Report: May 4, 2016 at 4:50 PM


Visibility: N/A

Pressure: 30.36 "Hg

Humidity: 34%

Dew Point: 30 °F

Location of Osterode am HarzLocation

Historic Weather in Osterode am Harz — Graph

°F

Osterode am Harz Temperature Yesterday

Maximum temperature yesterday: 57 °F (at 9:20 AM)
Minimum temperature yesterday: 45 °F (at 6:50 AM)
Average temperature yesterday: 52 °F

High & Low Weather Summary for the Past Weeks

 TemperatureHumidityPressure
High68 °F (May 2, 4:20 PM)100% (Apr 22, 7:50 AM)30.42 "Hg (Apr 22, 7:50 AM)
Low32 °F (Apr 21, 6:50 AM)29% (Apr 21, 4:20 PM)29.45 "Hg (Apr 26, 6:50 AM)
Average48 °F64%30.00 "Hg
* Reported Apr 19 4:50 PM — May 4 4:20 PM, Osterode am Harz, Weather by CustomWeather, © 2016

Note: Actual official high and low records may vary slightly from our data, if they occured in-between our weather recording intervals... More about our weather records

Advertising

Osterode am Harz Weather History for the Previous 24 Hours

Scroll right to see more
 ConditionsComfort  
Time TempWeatherWind HumidityBarometerVisibility
4:20 PM
Wed, May 4
59 °FSunny.5 mph39%30.36 "Hg10 mi
3:50 PM59 °FPassing clouds.6 mph39%30.36 "HgN/A
3:20 PM55 °FSunny.3 mph44%30.39 "Hg10 mi
2:50 PM55 °FScattered clouds.7 mph44%30.39 "HgN/A
2:20 PM54 °FScattered clouds.6 mph51%30.39 "HgN/A
12:50 PM54 °FBroken clouds.6 mph58%30.39 "HgN/A
12:20 PM52 °FScattered clouds.7 mph62%30.39 "HgN/A
11:50 AM50 °FScattered clouds.7 mph62%30.39 "HgN/A
11:20 AM52 °FBroken clouds.7 mph62%30.39 "HgN/A
10:50 AM50 °FBroken clouds.6 mph67%30.39 "HgN/A
9:50 AM46 °FPartly sunny.8 mph82%30.39 "HgN/A
9:20 AM46 °FPartly sunny.7 mph82%30.39 "HgN/A
8:50 AM45 °FPartly sunny.6 mph87%30.39 "HgN/A
8:20 AM43 °FPartly sunny.5 mph93%30.39 "HgN/A
7:50 AM41 °FPartly sunny.3 mph93%30.39 "HgN/A
7:20 AM39 °FPartly sunny.2 mph100%30.36 "HgN/A
6:50 AM37 °FPartly sunny.No wind100%30.36 "HgN/A
6:20 AM37 °FPassing clouds.No wind93%30.36 "HgN/A
5:50 AM37 °FPartly cloudy.No wind93%30.33 "HgN/A
5:20 AM34 °FPassing clouds.3 mph93%30.33 "HgN/A
4:50 AM36 °FPassing clouds.3 mph93%30.33 "HgN/A
9:50 PM
Tue, May 3
48 °FPassing clouds.8 mph66%30.24 "HgN/A
7:50 PM52 °FPassing clouds.7 mph72%30.18 "HgN/A
7:20 PM52 °FPassing clouds.7 mph77%30.18 "HgN/A
6:50 PM50 °FSunny.6 mph82%30.15 "Hg10 mi
6:20 PM50 °FMore clouds than sun.8 mph82%30.15 "HgN/A
5:50 PM52 °FBroken clouds.7 mph77%30.15 "HgN/A
5:20 PM52 °FPartly sunny.7 mph77%30.15 "HgN/A
Weather by CustomWeather, © 2016

See weather overviewHow to use our weather pages